Grand Rapids, MI

1:10 AM EDT on August 30, 2016 (GMT -0400)
Gerald R. Ford International

Weather History for KGRR - October, 2012

Change the Weather History Date:

Wednesday, October 17, 2012

  Actual Average Record
Temperature  
Mean Temperature 65 °F 51 °F  
Max Temperature 73 °F 60 °F 84 °F (1947)
Min Temperature 57 °F 41 °F 22 °F (1972)
Degree Days  
Heating Degree Days 0 14  
Month to date heating degree days 229 203  
Since 1 July heating degree days 363 355  
Cooling Degree Days 0 0  
Month to date cooling degree days 2 4  
Year to date cooling degree days 1037 696  
Growing Degree Days 13 (Base 50)    
Moisture  
Dew Point 50 °F    
Average Humidity 69    
Maximum Humidity 93    
Minimum Humidity 44    
Precipitation  
Precipitation 0.13 in 0.10 in 1.91 in (1905)
Month to date precipitation 3.35 1.80  
Year to date precipitation 27.54 30.80  
Snow  
Snow 0.00 in 0.00 in 0.50 in (1952)
Month to date snowfall T 0.1  
Since 1 July snowfall T 0.1  
Since 1 September snowfall T 0.1  
Snow Depth 0.00 in    
Sea Level Pressure  
Sea Level Pressure 29.55 in    
Wind  
Wind Speed 16 mph (South)    
Max Wind Speed 31 mph    
Max Gust Speed 40 mph    
Visibility 10 miles    
Events Rain    
T = Trace of Precipitation, MM = Missing Value Source: NWS Daily Summary

Daily Weather History Graph

Daily Weather History Graph

Search for Another Location

Airport or City:

Trip Planner

Search our weather history database for the weather conditions in past years. The results will help you decide how hot, cold, wet, or windy it might be!

Date:

Astronomy

Oct. 17, 2012 Rise Set
Actual Time 7:58 AM EDT 6:55 PM EDT
Civil Twilight 7:29 AM EDT 7:24 PM EDT
Nautical Twilight 6:56 AM EDT 7:56 PM EDT
Astronomical Twilight 6:24 AM EDT 8:29 PM EDT
Moon 10:36 AM EDT (10/17) 8:26 PM EDT (10/17)
Length of Visible Light 11h 54m
Length of Day
10h 57m
Waxing Crescent, 7% of the Moon is Illuminated
Oct 17
Waxing Crescent
Oct 21
First Quarter
Oct 29
Full
Nov 6
Last Quarter
Nov 13
New

Hourly Weather History & Observations

Time (EDT) Temp. Dew Point Humidity Pressure Visibility Wind Dir Wind Speed Gust Speed Precip Events Conditions
12:53 AM 57.9 °F 43.0 °F 58% 29.64 in 10.0 mi South 10.4 mph - N/A   Clear
1:53 AM 57.9 °F 45.0 °F 62% 29.62 in 10.0 mi South 11.5 mph - N/A   Partly Cloudy
2:53 AM 60.1 °F 46.0 °F 60% 29.63 in 10.0 mi South 13.8 mph - N/A   Mostly Cloudy
3:53 AM 59.0 °F 46.9 °F 64% 29.61 in 10.0 mi South 13.8 mph - N/A   Scattered Clouds
4:53 AM 59.0 °F 48.0 °F 67% 29.60 in 10.0 mi South 12.7 mph - N/A   Partly Cloudy
5:53 AM 57.9 °F 48.0 °F 70% 29.60 in 10.0 mi South 15.0 mph - N/A   Scattered Clouds
6:53 AM 57.9 °F 48.0 °F 70% 29.60 in 10.0 mi South 15.0 mph - N/A   Partly Cloudy
7:53 AM 57.9 °F 48.9 °F 72% 29.59 in 10.0 mi South 13.8 mph 21.9 mph N/A   Partly Cloudy
8:53 AM 57.9 °F 48.9 °F 72% 29.60 in 10.0 mi South 17.3 mph - N/A   Scattered Clouds
9:53 AM 61.0 °F 48.9 °F 64% 29.61 in 10.0 mi South 18.4 mph 24.2 mph N/A   Scattered Clouds
10:53 AM 64.0 °F 48.9 °F 58% 29.60 in 10.0 mi South 16.1 mph - N/A   Partly Cloudy
11:53 AM 66.9 °F 50.0 °F 54% 29.58 in 10.0 mi South 12.7 mph 21.9 mph N/A   Scattered Clouds
12:53 PM 70.0 °F 48.9 °F 47% 29.57 in 10.0 mi South 13.8 mph 23.0 mph N/A   Mostly Cloudy
1:53 PM 71.1 °F 48.9 °F 45% 29.55 in 10.0 mi South 12.7 mph 21.9 mph N/A   Mostly Cloudy
2:53 PM 72.0 °F 50.0 °F 46% 29.52 in 10.0 mi South 17.3 mph 23.0 mph N/A   Mostly Cloudy
3:53 PM 72.0 °F 48.0 °F 43% 29.51 in 10.0 mi South 17.3 mph 25.3 mph N/A   Mostly Cloudy
4:53 PM 66.0 °F 54.0 °F 65% 29.49 in 10.0 mi South 10.4 mph - 0.02 in   Overcast
5:53 PM 68.0 °F 51.1 °F 55% 29.49 in 10.0 mi South 15.0 mph - N/A   Overcast
6:53 PM 64.9 °F 52.0 °F 63% 29.51 in 5.0 mi SSW 18.4 mph 29.9 mph 0.01 in Rain Light Rain
7:53 PM 61.0 °F 53.1 °F 75% 29.52 in 10.0 mi South 13.8 mph - 0.01 in Rain Light Rain
8:53 PM 57.9 °F 55.0 °F 90% 29.51 in 10.0 mi SSE 16.1 mph - 0.04 in Rain Light Rain
9:21 PM 57.2 °F 55.4 °F 94% 29.51 in 10.0 mi SSE 15.0 mph 24.2 mph 0.00 in   Overcast
9:47 PM 57.2 °F 55.4 °F 94% 29.49 in 10.0 mi SSE 15.0 mph - 0.00 in   Overcast
9:53 PM 57.9 °F 55.0 °F 90% 29.49 in 10.0 mi SSE 17.3 mph - 0.00 in Rain Light Rain
10:53 PM 59.0 °F 55.0 °F 87% 29.46 in 10.0 mi SE 18.4 mph 27.6 mph 0.01 in   Overcast
11:53 PM 59.0 °F 54.0 °F 83% 29.44 in 10.0 mi SE 25.3 mph 35.7 mph 0.00 in   Overcast